Location: Whispering Pines Observatory
(39.4020°N, 104.7430°W)
Time: 06:18:10
(UTC-06:00)

MOS 1 Rocket - Visible Passes

Search period start: 28 March 2015 00:00
Search period end: 07 April 2015 00:00
Orbit: 616 x 832 km, 97.4° (Epoch: 27 March)

Date Brightness Start Highest point End Pass type
(mag) Time Alt. Az. Time Alt. Az. Time Alt. Az.
28 Mar 3.4 20:23:57 10° SSE 20:28:26 56° ENE 20:33:17 10° N visible
28 Mar 6.0 22:04:46 10° WSW 22:07:19 14° W 22:09:40 10° WNW visible
29 Mar 4.4 21:13:42 10° S 21:18:07 44° W 21:22:49 10° NNW visible
30 Mar 3.4 20:24:52 10° SSE 20:29:26 59° ENE 20:34:22 10° N visible
30 Mar 6.1 22:05:51 10° WSW 22:08:20 14° W 22:10:37 10° WNW visible
31 Mar 4.5 21:14:40 10° SSW 21:19:08 42° W 21:23:52 10° NNW visible
01 Apr 3.4 20:25:47 10° SSE 20:30:27 62° ENE 20:35:26 10° N visible
01 Apr 6.1 22:06:57 10° WSW 22:09:22 13° W 22:11:34 10° WNW visible
02 Apr 4.6 21:15:39 10° SSW 21:20:08 41° W 21:24:54 10° NNW visible
03 Apr 3.4 20:26:42 10° SSE 20:31:26 65° ENE 20:36:31 10° N visible
03 Apr 6.2 22:08:03 10° WSW 22:10:24 13° W 22:12:30 10° WNW visible
04 Apr 4.7 21:16:38 10° SSW 21:21:10 39° W 21:25:56 10° NNW visible
05 Apr 3.4 20:27:37 10° SSE 20:32:26 68° ENE 20:37:35 10° N visible
05 Apr 6.2 22:09:09 10° WSW 22:11:25 13° W 22:13:26 10° WNW visible
06 Apr 4.8 21:17:37 10° SSW 21:22:10 38° W 21:26:58 10° NNW visible
